星链-34426 (STARLINK-34426)

导读

STARLINK-34426是由美国发射的星链卫星,于2025年6月13日成功入轨。它隶属于SpaceX星链互联网星座,承担全球卫星互联网服务任务,旨在为偏远地区、地面网络覆盖不足区域提供低时延宽带网络,入轨后将完成在轨测试,随后正式投入服务,进一步拓展全球天基通信网络覆盖范围。

Basic Information
目录编号:
64345
目录名称:
STARLINK-34426
国际标识:
2025-126B
轨道中心:
EARTH
卫星名称:
星链-34426
卫星全名:
星链-34426 (STARLINK-34426)
卫星状态:
在轨 (已飞行449 天)
发射日期:
2025-06-13 UTC
国别 :
美国 (US)
星等 :
--
Orbit Information
数据来源 国际轨道数据
星历时间: 2026-09-05T12:00:02+0800
7小时前
查看轨道信息
半长轴: 6879.016km
偏心率: 0.0003189
轨道倾角: 70.005°
近地点辐角 291.182°
升交点赤经 301.607°
平近点角 84.951°
近地点: 498.685km
远地点: 503.073km
周期: 94.634分钟
每日圈数: 15.216448
Detailed Information
固有亮度:
5
最大亮度:
2.5
卫星平台:
Starlink V1.0
覆盖范围:
全球
运营商:
太空探索技术公司
运营商所在国:
美国
制造商(研发单位):
太空探索技术公司
制造商所在国:
美国
使用方式:
暂无
Satellite Introduction
Starlink 计划是 SpaceX 推出的全球卫星互联网项目,通过发射低轨道卫星,为全球尤其是偏远地区提供高速、低延迟的互联网服务。自 2019 年起,Starlink 已部署数千颗卫星,旨在缩小全球数字鸿沟,推动互联网普及。该项目还为军事、航空等行业提供通信支持,带来广泛经济效益。
2D Orbit Map
3D Orbit Map
Orbit Altitude Analysis Chart
Orbit Inclination Analysis Chart
Orbit Comprehensive Analysis Chart
View Comprehensive Chart
Conjunction Data List
Event ID Objects TCA Miss Dist (km) Collision Risk Probability Collision Risk Index (CRI) Action
CDM_260906-163906-434506-814421
2026-09-06T
16:39:13+0000
1.472 km
极远距离
3.46366E-6 低风险 0.46
CDM_260906-014906-363606-434521
2026-09-06T
01:49:30+0000
1.772 km
极远距离
3.389404E-6 低风险 0.46
CDM_260905-234305-707206-434521
2026-09-05T
23:43:00+0000
1.864 km
极远距离
3.02679E-6 低风险 0.45
CDM_260905-233605-598906-434521
2026-09-05T
23:36:32+0000
2.421 km
极远距离
1.701458E-6 低风险 0.4
CDM_260906-090006-434506-519521
2026-09-06T
09:00:37+0000
2.579 km
极远距离
1.688011E-6 低风险 0.4
CDM_260906-095706-434506-625121
2026-09-06T
09:57:30+0000
2.545 km
极远距离
1.5367E-6 低风险 0.39
CDM_260905-220205-598906-434521
2026-09-05T
22:02:19+0000
2.639 km
极远距离
1.465011E-6 低风险 0.38
CDM_260903-093003-118706-434521
2026-09-03T
09:30:00+0000
2.952 km
极远距离
1.374908E-6 低风险 0.38
CDM_260906-054006-434506-629521
2026-09-06T
05:40:50+0000
2.615 km
极远距离
1.28013E-6 低风险 0.37
CDM_260906-075906-434506-922821
2026-09-06T
07:59:41+0000
2.577 km
极远距离
9.408646E-7 极低风险 0.34